Theta_e
278 278 278 277 277 277 277 277 276 277 276 276 276 276 276 277 276 276 276 276 276 276 276 276 276 276 275 276 275 275 275 275 275 275 275 275 275 275 275 275 275 275 275 275 275 276 276 276 277 277 278 277 278 278 278 279 280 280 281 281 281 281 280 280 279 279 282 283 284 284 284 283 284 284 285 285 285 285 287 286 285 285 285 285 285
278 277 277 277 276 276 276 276 276 276 276 276 275 275 275 275 275 275 275 275 275 275 275 275 275 275 275 275 275 274 274 274 274 275 274 274 274 276 275 275 274 274 275 274 275 275 275 275 275 276 277 277 277 277 278 278 278 278 279 279 279 280 281 280 279 279 278 281 281 283 283 284 283 284 284 285 285 285 285 285 285 284 284 284 284
277 277 277 277 276 275 276 275 275 275 275 275 274 274 274 274 275 274 274 274 274 274 274 274 274 274 273 274 273 273 274 273 274 274 274 274 274 274 275 275 274 274 274 274 274 275 274 274 274 275 276 276 276 276 277 277 278 277 278 278 278 279 280 280 279 278 278 279 281 281 281 282 283 283 283 284 284 284 284 285 285 285 285 284 284
277 277 276 275 275 275 275 274 274 274 274 274 273 274 274 274 274 274 274 273 273 273 273 273 273 272 272 272 272 272 273 273 273 273 274 274 274 274 274 274 274 274 274 274 274 275 274 274 274 275 275 275 275 275 276 276 276 277 277 277 278 278 279 279 279 279 278 278 279 280 281 281 282 282 282 282 282 283 284 284 284 284 284 284 284
277 276 275 275 275 275 274 274 274 274 273 273 273 273 273 273 273 273 272 272 272 272 272 271 271 271 271 271 272 272 272 272 272 272 273 273 273 273 274 274 274 274 274 274 276 275 275 274 275 275 275 275 275 275 275 275 276 276 276 277 277 278 278 278 278 279 278 277 278 279 280 280 281 282 282 281 282 282 282 282 283 283 283 284 284
275 275 275 275 275 274 274 273 274 273 273 273 273 273 273 272 272 272 271 270 271 271 270 270 271 270 271 271 271 271 271 271 271 271 271 272 272 272 272 273 273 274 274 274 275 275 275 275 275 275 275 275 275 275 275 275 276 276 276 276 277 277 277 277 278 277 277 277 277 277 279 278 279 280 281 281 280 280 281 281 281 282 282 283 283
275 275 274 274 274 274 273 273 273 273 273 273 272 272 271 271 270 270 270 269 269 269 269 269 270 270 270 270 270 269 269 270 270 270 270 271 271 271 272 272 272 273 273 273 274 274 274 274 274 275 274 275 274 274 275 275 275 275 276 276 277 277 277 277 277 277 277 277 277 277 277 278 279 278 280 280 280 280 279 280 280 281 281 282 282
275 275 274 274 273 273 273 273 272 272 272 271 271 270 270 269 269 269 268 268 268 268 268 268 268 268 269 268 268 268 268 268 269 269 269 270 271 271 271 271 271 271 272 272 272 272 273 273 273 274 274 274 275 275 275 275 276 276 278 278 278 278 278 278 278 277 277 276 276 276 277 277 278 278 279 278 278 279 279 278 278 280 281 281 281
274 274 273 273 273 273 273 272 272 271 271 270 269 269 268 268 267 267 267 267 267 267 267 267 266 266 266 266 266 267 267 267 268 268 269 270 271 271 271 271 271 271 271 271 272 272 272 273 273 273 274 276 277 278 278 278 276 276 277 277 277 277 276 276 276 276 276 276 276 277 276 276 277 277 276 276 276 277 280 278 278 280 280 280 281
274 273 273 272 272 272 271 271 270 270 269 268 267 266 266 266 266 265 265 265 265 266 265 265 265 265 265 265 265 265 266 266 268 271 273 272 272 271 271 271 271 271 271 270 271 271 272 272 273 275 275 275 276 277 277 278 278 277 276 276 276 276 276 276 276 276 276 275 275 276 275 275 276 277 276 277 278 278 278 278 278 279 280 279 280
272 272 272 271 271 270 269 268 268 267 267 266 264 264 265 263 262 263 262 263 263 264 264 264 264 264 264 264 264 264 265 265 269 272 274 274 273 272 271 271 271 271 270 270 270 270 271 271 271 272 273 273 273 275 276 277 277 278 278 279 278 276 275 275 275 276 276 276 277 278 277 277 277 278 278 278 279 278 278 279 278 279 278 277 277
271 270 270 270 269 268 268 267 266 265 265 264 263 262 262 261 261 261 261 262 263 262 263 263 263 263 263 263 263 263 264 267 270 272 273 274 274 272 272 271 271 270 270 270 270 270 269 269 269 270 269 270 270 270 271 273 274 275 276 277 277 278 279 276 275 274 274 274 274 275 275 276 277 279 279 279 278 279 278 278 278 278 278 277 277
270 269 269 268 267 267 266 264 263 262 262 262 261 260 260 261 260 260 260 260 261 261 262 262 262 263 263 262 262 263 263 266 270 272 273 274 274 274 271 271 270 270 269 269 268 268 268 268 268 268 269 271 270 269 269 269 272 274 274 275 275 276 276 277 278 275 274 273 273 273 274 274 274 275 278 280 281 279 279 279 278 278 278 278 279
268 268 267 266 266 266 264 262 262 262 261 261 261 260 259 259 259 260 260 261 261 261 260 261 261 261 262 261 261 262 262 265 270 272 272 273 274 274 271 270 269 268 268 268 267 267 267 267 267 267 268 269 269 269 269 269 270 270 271 271 271 273 275 276 276 277 276 274 273 272 273 275 275 277 279 281 280 279 279 279 280 279 279 278 280
267 267 265 265 264 263 264 262 261 261 261 260 259 259 259 259 260 260 259 261 260 260 260 259 260 260 260 260 261 261 261 267 270 271 272 273 274 274 270 269 268 267 268 268 268 268 268 268 268 267 268 268 269 270 269 270 270 269 269 270 270 271 271 272 272 273 273 274 273 273 273 274 274 274 275 276 277 278 280 279 280 280 281 282 281
266 265 264 264 263 264 262 261 261 260 261 259 258 260 259 258 259 259 259 259 258 259 259 259 259 259 260 259 259 260 261 267 269 270 272 273 274 270 269 268 267 267 267 267 268 268 268 268 268 268 268 268 270 273 273 271 270 270 269 270 270 271 271 274 276 277 276 275 275 275 275 276 278 277 278 278 278 278 278 279 280 279 278 278 277
265 265 263 263 263 262 263 261 260 259 259 259 257 258 259 258 258 258 258 259 259 258 258 258 259 259 259 259 259 259 259 264 268 270 271 273 271 269 268 268 267 267 267 268 268 268 268 268 268 268 268 268 271 274 275 275 271 270 270 270 271 271 271 273 276 277 278 278 279 279 280 280 281 281 282 282 280 280 278 277 276 279 278 276 277
264 263 263 262 263 262 262 259 260 258 258 257 257 259 258 257 257 257 258 258 258 257 258 258 258 258 258 258 258 258 259 263 268 269 270 271 271 269 268 267 267 267 267 268 268 268 269 271 271 269 269 269 273 275 276 275 272 272 271 271 270 270 271 273 273 273 277 278 278 278 278 279 279 280 280 281 280 279 275 273 274 276 276 277 277
264 263 263 262 262 260 260 259 259 258 257 258 257 257 256 256 257 256 257 256 257 257 257 257 257 257 258 258 261 261 259 261 266 268 270 271 270 269 269 268 267 267 267 267 268 268 269 270 272 272 272 273 276 277 277 275 273 272 272 271 270 270 271 272 271 272 272 272 272 273 274 275 275 274 275 278 279 278 276 275 275 274 273 275 277
264 263 263 262 261 259 259 259 259 257 258 257 256 256 256 256 256 256 256 256 256 256 257 257 256 257 257 258 258 259 259 259 261 268 270 271 272 270 269 268 267 267 267 267 267 268 269 269 270 274 275 276 277 277 277 277 274 273 272 271 271 270 273 273 273 273 272 272 272 273 273 274 274 275 274 274 275 275 275 275 275 274 273 273 275
262 262 262 260 258 258 258 257 256 256 256 255 256 255 255 257 256 255 256 256 255 256 256 256 256 257 257 258 258 259 259 259 261 268 270 271 273 272 269 269 268 268 268 268 268 268 268 269 270 273 276 276 277 277 277 277 277 274 273 272 272 273 276 273 274 276 274 274 274 274 274 274 274 274 274 274 274 275 275 276 275 275 274 274 274
262 260 259 259 258 257 256 255 256 255 254 254 254 255 254 254 255 255 255 255 255 255 255 256 256 256 257 258 258 258 260 262 261 266 270 271 273 274 271 270 271 271 270 270 270 270 270 271 271 273 276 277 277 277 278 278 279 275 275 277 278 278 275 275 274 274 273 272 271 271 271 271 271 271 272 273 273 274 275 275 276 276 276 276 275
261 260 258 257 256 255 254 254 254 254 254 254 254 254 254 253 253 254 254 254 254 254 254 255 255 256 256 257 258 259 259 260 265 265 269 272 273 274 274 274 275 273 271 270 270 270 271 271 272 275 276 277 277 278 278 279 277 275 278 278 278 278 277 274 273 272 271 270 270 269 269 270 269 270 270 271 272 273 274 274 275 276 276 277 277
259 258 256 255 254 254 253 253 253 252 252 253 252 253 253 253 253 252 254 254 254 254 255 255 255 255 255 256 258 259 260 261 264 269 269 272 274 275 275 275 276 273 272 272 272 272 272 271 272 276 276 277 277 277 278 277 276 277 278 278 277 277 274 274 273 272 271 270 270 270 269 269 269 269 270 271 271 272 273 273 273 274 275 277 278
257 255 254 253 252 252 251 251 251 250 252 252 252 253 253 251 253 253 253 254 254 254 254 254 254 255 256 257 259 260 262 264 265 268 271 272 274 274 275 275 276 276 273 272 272 272 274 277 277 277 277 278 278 277 276 276 276 277 277 277 277 274 272 271 270 269 268 268 268 268 268 269 270 270 272 272 272 273 273 273 274 274 274 275 276
255 254 252 251 252 251 251 252 251 252 252 252 253 253 253 253 253 254 254 254 253 253 254 254 254 256 257 259 261 263 264 265 266 267 269 270 271 273 274 275 275 275 275 273 275 276 277 277 277 277 276 275 273 272 272 273 276 277 276 275 271 269 269 268 267 267 266 267 268 268 269 270 270 271 271 272 271 270 271 271 271 271 272 272 273
256 254 254 253 251 250 251 252 252 252 251 252 252 253 253 252 253 254 254 253 253 253 254 255 256 257 259 261 262 264 265 266 267 267 268 268 269 270 272 272 274 275 273 272 273 273 273 274 273 275 274 275 274 274 273 273 270 269 268 268 268 268 268 267 267 267 268 268 268 269 270 271 271 271 270 270 270 271 271 271 270 271 272 272 272
256 254 252 250 252 251 252 255 255 253 253 252 252 253 252 253 253 253 254 254 254 254 254 256 258 260 261 262 262 264 266 267 267 267 268 269 271 272 272 272 271 271 271 271 271 272 271 272 271 269 269 269 268 268 268 267 268 268 268 268 268 269 270 272 272 271 271 271 270 271 271 271 270 271 271 270 270 270 271 270 270 270 271 272 272
253 252 251 250 251 253 253 252 252 253 252 252 252 253 253 253 254 255 257 257 257 257 257 258 260 261 262 263 265 266 266 266 267 271 271 274 272 272 271 270 271 270 271 273 270 269 268 268 268 267 266 265 265 265 266 267 267 268 267 267 268 268 269 269 269 269 270 270 270 270 270 270 269 270 270 269 269 270 271 271 272 271 272 273 272
253 254 253 252 250 251 252 251 251 252 251 252 252 253 258 262 261 259 259 264 267 269 268 264 265 268 268 268 268 266 266 268 272 274 274 274 275 274 273 273 273 270 271 272 268 264 263 262 263 263 263 263 263 263 264 264 265 265 265 267 266 266 268 269 269 270 270 270 271 270 270 270 270 270 269 270 270 270 272 273 272 273 272 272 272
256 256 254 254 253 253 252 252 252 252 252 252 252 253 253 256 262 265 266 266 268 269 270 271 272 272 270 268 269 271 272 272 272 273 274 274 273 273 273 272 271 270 270 265 261 259 259 259 259 260 261 261 261 261 262 262 262 262 263 263 264 265 267 267 268 270 270 271 271 271 271 270 270 270 270 270 270 271 272 273 273 273 273 273 272
256 256 255 254 255 255 254 253 253 253 253 253 253 253 252 252 254 260 264 265 266 267 268 270 271 271 270 270 268 267 269 271 272 273 273 272 272 272 271 270 269 269 268 265 257 257 257 257 258 258 259 259 259 260 260 260 260 260 261 261 262 264 265 266 268 269 270 271 271 271 270 270 270 270 270 271 271 272 272 272 273 273 274 274 274
256 256 255 255 255 255 254 254 254 253 252 252 252 251 252 251 252 253 257 263 265 265 267 268 269 268 269 269 270 269 270 271 272 272 272 271 271 271 270 268 267 267 265 258 255 255 256 256 257 257 257 257 258 258 258 259 259 260 260 261 262 263 264 266 268 268 270 271 271 271 271 271 271 271 271 272 272 272 273 274 275 276 276 275 275
257 256 255 255 254 254 253 253 253 253 253 253 252 253 252 253 252 253 254 254 256 260 262 264 265 266 267 268 269 269 269 270 271 272 271 270 270 269 268 262 265 265 262 256 256 255 255 255 256 256 256 257 257 258 258 258 259 259 260 261 262 263 264 266 266 267 269 271 271 271 272 272 272 271 272 272 273 274 274 275 275 275 275 275 275
255 255 256 256 255 254 254 255 254 253 253 253 253 252 253 253 254 254 253 253 253 254 255 256 260 263 263 265 266 268 269 269 270 270 270 269 269 267 264 256 255 256 256 254 255 254 255 255 255 256 256 256 256 257 257 258 258 259 259 260 261 262 263 264 264 266 269 270 271 271 272 272 272 273 273 273 274 274 274 275 275 275 275 276 276
256 256 255 255 255 255 254 253 254 254 253 253 253 253 253 254 254 253 253 254 254 254 254 255 256 260 263 265 265 266 268 269 269 269 268 268 267 264 255 254 254 254 255 255 255 255 256 255 256 256 256 256 257 257 257 258 258 259 260 260 261 262 262 263 264 266 268 268 268 269 270 271 273 273 273 273 274 274 274 275 275 275 276 276 276
255 255 255 254 254 254 254 253 253 254 256 255 255 254 253 254 253 253 252 252 252 252 253 253 254 255 258 257 260 264 267 268 268 267 266 265 265 258 252 253 253 254 254 254 255 255 255 255 255 255 256 256 256 257 258 258 259 259 261 261 261 262 262 263 265 266 266 266 266 267 267 268 270 271 271 271 272 273 274 274 275 275 275 276 276
255 254 254 253 253 253 252 253 253 255 255 255 254 254 253 252 252 252 252 252 253 253 252 252 255 253 253 254 259 258 260 265 266 263 260 260 256 254 253 252 253 253 254 254 255 255 254 255 255 255 256 256 256 257 258 258 259 259 260 261 262 262 265 264 265 265 265 265 265 266 266 267 268 269 270 270 271 272 273 274 274 274 274 274 274
254 255 257 257 257 254 253 253 254 254 253 253 252 252 252 251 251 250 250 250 250 251 251 251 251 252 253 254 254 257 260 260 257 255 254 253 253 252 252 252 252 253 253 254 254 255 254 255 255 256 256 257 257 257 258 259 260 260 261 261 261 262 262 263 263 264 264 264 264 265 265 266 267 268 269 269 270 271 272 273 273 274 273 273 272
254 254 256 258 256 258 257 256 255 253 253 251 251 249 250 251 250 250 249 249 249 250 250 251 252 252 253 253 255 258 260 259 255 253 252 252 253 252 251 252 252 252 253 253 253 254 254 254 255 256 256 256 257 258 259 260 260 261 261 262 262 262 262 263 263 263 263 263 264 264 265 265 266 267 268 269 269 270 271 271 272 272 273 273 272
254 255 254 257 257 255 255 254 253 253 251 251 251 250 250 251 251 251 249 250 251 250 251 251 251 252 253 257 262 264 260 255 253 252 252 252 252 252 252 252 252 252 252 252 253 253 254 254 255 255 256 256 257 258 259 260 261 262 262 262 262 263 263 263 263 263 263 263 263 264 264 265 266 266 266 267 270 269 269 270 270 271 271 271 271
252 252 251 251 254 253 251 252 252 253 253 252 251 250 251 251 250 250 250 250 251 251 251 251 251 251 255 260 262 264 259 252 250 251 251 251 251 251 252 251 250 250 251 252 252 253 253 254 255 255 255 256 257 258 259 260 261 262 262 262 263 263 263 263 263 263 263 263 263 263 264 264 265 266 266 268 267 267 267 268 268 269 268 267 268
251 250 251 250 251 251 252 252 250 249 249 249 250 252 252 251 250 250 250 251 251 251 251 251 252 251 252 258 258 260 253 250 251 251 250 251 251 251 251 251 251 251 251 251 252 252 253 253 254 254 255 256 257 258 259 260 261 262 263 263 263 263 263 263 263 263 263 263 263 263 263 264 264 264 264 265 265 266 266 267 267 267 267 268 267
250 250 250 250 250 250 251 250 250 250 249 251 252 251 250 250 249 249 249 248 249 249 251 251 251 252 252 253 254 251 248 248 248 248 249 251 250 251 251 250 250 251 251 251 251 251 252 252 253 253 254 255 256 258 260 261 262 262 263 263 263 264 264 264 263 263 263 263 263 263 263 264 264 264 264 264 264 264 264 265 266 266 266 266 265
248 249 249 249 249 249 249 249 250 250 251 250 249 248 250 248 248 248 249 249 250 250 250 251 252 251 251 251 249 249 249 248 249 250 250 249 250 250 250 250 250 250 250 251 251 251 251 251 252 253 253 254 256 257 259 261 262 263 264 264 263 264 264 264 264 264 264 263 263 263 263 263 263 263 264 264 264 264 263 264 264 265 265 265 265
248 248 249 248 248 249 249 248 249 248 248 248 248 247 247 246 247 248 249 250 250 250 250 251 250 250 251 250 249 249 249 248 249 248 250 249 249 250 249 249 250 250 250 250 250 250 251 251 252 252 252 253 255 257 259 261 262 263 264 265 264 265 266 266 265 264 264 263 263 263 263 263 263 263 264 264 263 263 263 263 263 264 264 265 266
247 248 248 248 249 249 249 249 247 247 247 248 247 247 247 246 246 249 250 250 250 251 251 251 250 250 249 249 249 248 249 249 249 249 249 249 249 249 249 249 249 249 250 250 250 250 250 251 251 251 252 253 254 256 258 260 261 263 264 265 265 266 266 266 266 264 264 264 263 262 262 262 262 263 263 263 263 263 263 263 263 263 264 265 266
247 248 248 249 248 247 248 247 249 251 249 249 248 248 248 248 247 249 248 249 250 250 250 250 249 249 249 249 249 248 249 249 249 249 249 249 248 248 248 248 249 249 249 250 250 250 250 250 250 250 251 252 254 255 257 258 260 262 263 265 265 266 266 266 266 264 264 263 262 261 261 261 262 262 263 263 263 263 263 263 264 264 265 265 265
247 248 247 248 248 249 248 249 248 248 249 247 247 248 248 247 248 247 248 249 249 250 249 249 248 248 248 248 248 248 248 249 248 248 248 248 248 248 248 248 249 249 249 249 249 249 250 250 250 250 251 251 252 253 255 257 259 261 263 264 265 266 267 267 266 265 264 262 261 260 260 261 261 261 262 262 263 263 263 263 263 264 264 264 264
247 248 247 247 249 249 248 247 248 247 247 246 247 247 247 247 247 248 248 248 249 249 248 248 248 248 247 248 248 248 247 248 248 248 248 248 248 248 248 248 248 248 248 249 249 249 249 249 249 250 250 251 252 252 253 255 257 259 262 264 265 266 266 267 266 265 264 261 260 259 259 259 260 261 261 261 261 262 262 262 262 263 262 262 262
247 247 247 249 248 247 247 247 247 247 246 246 247 247 247 247 247 248 248 248 248 248 248 248 247 247 247 247 248 247 248 248 248 248 248 248 248 248 248 248 248 248 248 248 249 249 249 249 249 250 250 251 252 252 253 254 255 258 261 263 265 265 266 266 266 265 264 263 259 259 259 259 258 259 260 261 260 260 262 262 262 261 261 261 261
Wind_Speed
4 4 4 4 5 5 5 5 5 5 6 6 6 5 5 5 5 4 4 6 5 6 6 6 6 6 6 7 7 8 8 9 8 7 7 8 7 6 7 7 8 8 7 8 5 6 7 8 8 7 7 8 7 6 6 6 6 7 6 6 7 6 6 8 12 15 10 5 10 8 6 6 9 5 10 8 7 7 8 7 6 7 7 7 8
4 4 4 4 5 5 4 4 5 6 6 6 6 5 4 5 4 4 5 4 5 5 6 5 5 5 5 6 6 7 7 7 7 7 8 10 9 7 8 8 8 9 7 9 8 6 7 9 9 7 6 9 9 8 7 7 6 8 7 7 7 8 5 7 11 11 17 6 8 8 8 5 11 5 7 11 8 6 8 8 5 6 7 7 7
3 3 4 5 5 4 5 5 5 5 5 4 4 4 3 4 3 4 4 4 4 4 5 4 5 5 5 5 6 6 6 6 6 6 7 7 9 9 8 8 9 10 11 11 10 8 9 9 9 8 7 8 8 7 7 8 7 8 9 7 8 8 7 7 9 13 15 13 6 10 7 6 8 10 5 8 9 7 9 9 8 6 5 6 7
3 4 4 5 4 5 5 4 5 4 4 3 3 3 3 3 3 4 3 4 4 4 3 4 4 5 4 5 5 5 6 6 6 6 7 8 9 10 9 9 9 9 10 11 11 11 11 12 10 8 8 10 9 8 6 7 7 7 8 8 8 9 8 7 9 11 12 14 10 7 8 8 9 8 6 7 9 8 8 9 5 7 7 6 7
3 3 4 5 4 5 4 4 4 3 3 3 3 3 4 4 3 4 4 5 4 4 4 4 4 5 6 6 7 6 7 7 8 8 7 7 8 9 9 9 9 10 10 11 10 11 11 11 12 10 9 11 11 8 7 8 8 8 9 9 9 8 8 8 9 9 11 14 14 8 7 9 7 10 8 9 9 8 7 8 8 8 8 7 7
3 3 3 5 4 5 3 3 3 3 3 3 3 4 4 4 4 4 5 6 5 5 6 6 6 6 7 6 6 7 7 8 8 9 9 9 9 9 10 10 10 11 11 11 11 10 11 11 11 10 11 12 12 11 10 11 10 10 10 10 9 9 10 10 9 10 10 13 12 13 7 9 9 7 8 7 9 10 9 8 6 6 8 9 8
3 4 3 4 4 3 3 2 3 3 3 3 3 4 4 4 5 6 5 5 6 7 6 6 6 7 7 7 8 9 8 8 8 8 8 9 9 10 10 10 11 11 11 11 11 11 11 11 11 11 12 12 13 13 13 13 11 12 11 11 10 10 10 10 10 10 11 12 13 11 11 8 7 10 6 6 8 9 10 10 9 6 7 8 10
4 4 4 4 3 3 2 2 3 3 3 3 3 4 4 4 5 5 4 6 6 6 7 7 7 6 7 7 8 7 8 7 7 7 8 8 9 10 9 10 11 11 11 11 11 11 12 12 11 11 11 11 12 12 12 12 11 12 10 9 9 11 11 10 10 9 10 11 12 13 10 10 8 6 5 3 7 9 6 7 12 12 8 6 7
5 5 4 4 3 3 2 3 2 2 3 3 4 5 5 4 4 4 4 4 5 4 6 7 6 7 6 6 7 7 6 7 6 7 9 10 9 10 11 10 11 12 12 11 10 10 10 10 10 10 12 18 23 21 20 19 14 13 12 10 10 10 12 11 11 11 11 11 13 12 12 12 9 9 8 7 8 11 8 4 8 10 9 8 8
7 5 4 4 3 3 3 3 3 2 3 4 4 3 3 4 4 4 4 4 4 4 5 5 5 6 7 7 6 6 6 5 9 17 15 12 13 11 12 12 12 13 13 14 13 12 12 12 12 19 21 21 20 21 21 22 23 18 15 14 13 13 12 11 10 9 10 12 12 12 14 13 11 9 9 8 6 6 8 7 10 12 10 9 11
5 6 5 4 4 3 3 3 3 3 3 3 2 3 4 3 3 3 3 3 4 4 5 5 5 6 6 7 7 6 6 6 16 17 18 20 14 13 12 12 12 13 12 13 13 14 13 13 12 15 16 17 15 20 21 22 21 22 23 23 20 16 13 12 12 11 10 11 11 12 11 14 14 11 10 9 8 7 9 8 9 10 11 9 13
6 5 5 4 3 4 3 3 3 3 3 3 3 3 3 3 3 4 3 4 4 3 5 5 6 6 6 6 7 7 6 11 17 18 19 19 17 13 11 11 11 11 12 12 12 12 13 13 12 11 12 13 14 14 16 21 23 24 24 23 22 23 22 17 14 13 12 11 12 13 14 16 16 12 8 7 8 7 7 8 10 10 11 11 9
5 5 4 4 3 3 3 3 2 3 3 3 2 3 3 3 4 4 4 3 3 4 5 6 6 6 7 8 8 7 7 13 18 20 20 20 20 17 11 11 11 11 11 12 12 12 12 12 12 11 10 18 14 11 12 13 18 23 23 23 22 23 22 24 24 18 14 14 14 15 15 14 16 15 11 9 6 12 10 10 8 9 10 12 12
5 5 4 3 3 3 3 3 2 1 1 1 1 2 3 3 3 2 3 3 4 4 4 5 5 6 7 8 8 8 7 13 19 20 20 21 20 18 11 10 10 11 12 12 12 12 13 12 13 12 12 13 13 14 14 13 13 13 12 12 12 15 19 22 22 24 20 14 13 16 16 12 14 14 12 9 10 10 9 10 9 11 10 12 12
5 5 5 4 3 2 3 2 1 1 1 1 1 2 3 3 3 3 3 4 5 5 5 5 5 5 7 7 8 9 8 17 19 21 20 21 21 18 10 10 10 10 11 12 12 13 13 13 13 14 13 13 12 16 16 16 14 12 12 13 14 14 15 15 14 13 13 13 15 17 18 16 15 18 17 14 12 13 10 12 13 14 13 13 13
6 5 5 4 3 3 2 1 1 1 1 1 2 3 3 3 4 4 3 3 3 3 4 3 6 7 7 7 8 10 9 17 20 20 21 20 22 11 9 10 10 10 11 12 12 12 13 13 13 14 14 14 18 25 22 18 15 15 14 14 13 13 13 14 20 20 18 16 15 16 14 15 19 18 17 14 12 12 14 15 15 15 16 16 16
5 5 4 4 3 2 2 1 1 1 1 2 3 3 3 4 3 3 4 4 4 4 4 5 5 7 8 7 9 10 9 14 19 20 20 22 17 8 9 7 10 12 12 12 13 13 12 13 14 15 16 16 22 27 26 26 17 15 15 14 12 11 10 9 17 24 24 25 27 28 29 29 29 29 30 31 22 17 13 13 14 12 14 15 14
5 5 5 4 3 2 2 1 1 1 1 2 2 2 2 2 3 2 4 5 6 5 5 6 5 6 7 8 7 10 10 13 20 20 21 21 18 11 8 7 7 9 12 11 11 11 13 24 22 17 17 16 24 27 28 23 16 13 12 13 13 12 11 11 11 13 23 28 29 30 29 27 27 28 29 28 27 20 12 15 14 12 15 13 15
6 6 5 4 3 3 1 1 0 0 1 2 2 3 3 4 3 3 4 4 5 5 5 7 7 6 6 8 12 13 11 12 18 19 21 20 16 10 8 8 7 9 10 11 10 10 11 14 23 22 21 23 30 29 30 24 15 12 12 12 13 12 11 11 12 13 12 13 14 15 16 20 18 15 16 26 27 22 14 14 13 13 15 15 16
5 4 4 4 3 2 1 0 0 1 2 2 2 3 3 3 4 4 4 4 5 5 6 6 8 8 7 8 8 8 11 10 11 21 20 21 21 13 8 7 8 11 10 11 11 10 10 9 13 23 28 29 29 31 29 30 20 14 11 12 12 15 11 13 13 14 14 13 13 12 14 13 14 13 13 13 14 13 14 13 13 13 14 17 17
5 5 4 4 3 2 1 1 1 1 1 2 2 3 3 4 4 4 5 5 4 6 7 7 8 9 7 7 8 8 8 11 11 19 20 21 22 19 9 9 11 11 11 11 10 11 7 9 11 19 29 30 30 31 31 30 28 18 13 11 12 16 19 13 13 18 12 10 10 10 10 9 10 11 12 12 12 11 11 15 13 11 13 15 15
6 4 4 3 2 1 1 1 1 2 2 1 3 4 3 3 3 4 4 4 6 7 6 7 8 9 7 7 7 9 10 14 12 16 20 21 21 23 13 10 13 12 12 9 10 10 11 11 10 19 29 30 30 32 33 31 32 19 16 24 28 28 19 12 10 7 8 9 9 10 9 9 10 9 10 10 10 10 10 11 12 14 13 14 15
6 4 4 3 2 1 1 1 2 1 2 3 3 4 4 3 4 4 5 5 6 7 7 7 8 9 8 6 6 8 9 9 16 14 18 21 22 21 23 19 24 15 12 12 12 11 9 10 13 25 30 31 31 31 31 33 27 16 25 26 26 29 23 10 9 10 10 10 10 11 11 10 10 10 10 10 10 11 11 12 12 13 14 16 19
5 4 4 3 2 1 1 2 2 2 3 3 2 4 4 4 4 4 4 5 6 7 6 6 7 8 9 9 7 7 8 8 11 17 17 22 22 23 24 25 25 16 14 11 11 11 12 12 15 28 30 31 31 29 29 26 18 25 26 27 26 23 13 10 9 9 10 10 11 12 11 9 9 11 10 9 12 11 13 13 14 14 15 13 14
5 4 4 3 2 2 2 3 3 3 3 2 3 4 4 3 4 3 4 4 5 6 7 5 6 8 8 9 9 8 8 8 8 12 20 21 23 24 25 26 26 26 17 11 11 11 20 30 32 30 30 30 31 30 23 22 26 26 26 26 24 11 10 9 10 10 11 12 10 12 10 11 10 12 11 11 12 11 11 10 11 13 14 14 16
5 5 4 3 3 2 3 3 3 3 4 3 4 4 4 4 4 5 4 5 5 6 7 6 6 7 8 8 8 9 9 9 9 9 10 14 17 22 26 25 25 25 24 20 27 31 29 29 30 27 24 21 16 11 10 12 22 26 26 24 12 11 10 10 10 10 10 10 12 13 12 12 10 10 11 11 11 10 9 11 11 11 11 12 13
5 4 4 4 3 3 3 3 3 3 3 3 4 4 4 3 4 5 5 6 6 5 6 6 7 6 6 8 9 9 9 8 8 9 10 11 10 11 12 12 19 21 14 12 14 13 17 18 17 24 21 24 22 19 18 18 14 11 10 9 9 10 10 9 10 11 13 12 12 11 11 10 10 10 10 10 11 11 9 12 11 11 11 10 12
6 5 4 4 3 3 4 4 4 4 4 3 4 4 4 4 4 6 6 6 5 6 5 7 7 6 8 9 8 8 8 7 8 9 10 9 10 10 10 10 10 10 11 12 13 14 14 15 18 12 10 9 9 7 6 7 9 9 9 9 10 11 13 18 18 12 12 11 11 10 11 10 10 11 11 9 11 11 10 10 11 12 11 10 12
5 4 3 3 4 3 4 4 4 4 4 4 5 5 5 4 6 7 8 7 7 8 7 8 9 10 9 7 6 6 7 8 8 14 15 19 17 13 11 10 10 10 16 24 17 12 10 10 9 8 9 10 10 8 8 7 8 9 10 10 9 10 9 8 9 10 10 10 10 11 11 10 10 9 9 10 11 11 10 9 11 12 12 11 13
5 5 4 4 4 4 4 4 4 5 4 5 5 5 8 12 9 7 7 12 18 19 16 9 9 8 7 6 5 7 7 9 18 22 21 21 21 22 21 22 22 18 20 24 15 10 9 9 9 9 9 8 11 10 10 10 9 10 10 13 12 11 10 10 9 10 10 11 10 10 10 10 10 10 9 10 11 10 11 13 14 12 13 11 13
6 5 6 6 6 5 5 5 4 5 5 4 4 5 6 7 10 13 15 14 15 16 16 19 19 17 10 6 7 16 18 19 20 20 21 20 20 21 21 21 21 20 21 15 10 9 9 9 10 10 10 9 9 9 10 11 10 10 9 10 10 10 12 10 10 10 11 10 10 9 10 9 10 10 10 10 11 11 11 11 12 12 13 13 14
10 10 9 7 6 6 5 4 4 4 4 4 5 4 3 6 9 8 8 9 12 14 17 17 15 11 11 12 10 7 12 16 19 20 19 19 18 19 20 21 19 18 17 16 7 7 7 8 9 9 9 10 10 10 10 10 10 9 10 11 12 12 12 12 13 13 13 11 9 10 9 9 9 9 10 10 12 11 12 12 11 11 13 11 13
10 8 8 8 5 5 5 4 4 4 4 4 4 4 4 3 5 8 10 10 11 11 12 10 6 7 12 15 16 14 14 15 18 18 17 17 17 17 19 19 16 15 14 8 5 7 6 7 7 8 8 9 9 9 9 9 9 10 9 11 12 13 13 15 16 14 12 11 10 10 10 10 10 10 11 11 11 11 12 12 12 12 11 10 9
10 8 7 8 7 5 5 4 4 5 4 5 5 5 4 4 4 4 5 9 12 5 2 3 7 11 13 16 16 15 15 16 16 16 16 16 16 17 17 12 13 11 10 6 6 7 7 7 7 7 8 9 9 9 9 9 9 9 10 10 11 10 12 11 13 13 12 12 10 10 10 9 9 9 10 10 11 11 11 11 11 12 12 10 10
9 6 7 5 6 5 4 4 5 4 4 5 5 4 5 4 4 4 4 4 5 7 11 8 6 8 9 11 13 14 15 15 15 14 15 15 15 16 14 9 11 8 6 2 3 5 7 7 8 8 8 9 9 9 10 10 10 10 10 11 11 11 11 12 13 13 12 12 12 11 10 10 10 10 10 10 9 9 10 10 10 10 11 10 9
7 5 6 6 6 5 4 5 5 5 5 5 5 5 5 5 5 4 4 4 5 6 7 8 8 10 15 12 12 14 15 15 14 14 14 14 14 13 8 8 8 8 8 8 7 7 6 7 8 8 8 8 8 9 9 10 10 10 10 10 11 11 12 13 13 13 13 12 12 13 13 12 11 10 11 11 12 11 9 9 10 10 11 10 9
7 6 5 5 5 5 5 4 4 5 5 5 6 5 5 4 5 4 5 5 5 5 6 7 8 10 7 4 8 15 18 16 14 14 13 13 13 5 2 4 5 7 8 9 9 8 8 8 7 8 8 8 9 9 9 9 10 10 11 10 10 11 11 11 13 14 13 12 12 12 13 12 11 11 12 12 12 10 10 10 11 11 11 11 10
7 6 6 4 5 4 4 5 5 7 6 5 5 5 4 4 4 4 6 5 5 5 5 6 5 6 8 10 8 6 10 14 13 10 8 10 9 6 6 4 4 5 7 7 7 7 8 8 7 8 9 9 9 10 9 10 9 9 10 10 10 10 17 15 15 13 13 11 11 11 11 11 11 11 12 12 12 11 11 10 10 10 10 9 5
5 7 9 9 7 6 5 5 5 6 6 6 5 5 6 5 5 5 6 5 4 5 6 5 6 6 7 6 7 9 9 6 6 7 7 6 5 4 4 4 4 5 5 6 7 7 8 9 9 8 8 9 9 9 10 10 10 9 10 10 11 10 11 10 11 10 10 9 9 9 10 10 10 10 10 11 12 11 11 12 11 9 9 8 6
6 5 7 11 7 7 6 6 6 6 7 5 6 4 5 6 6 5 4 4 5 5 5 5 6 6 6 4 6 6 5 6 5 6 7 7 6 5 4 5 5 5 6 7 7 8 9 9 9 9 9 9 9 10 10 10 10 10 9 9 9 11 11 10 10 10 10 11 11 11 11 11 11 11 11 9 9 10 11 11 10 9 7 6 5
5 6 5 7 8 6 5 6 6 7 6 6 6 6 7 7 5 6 5 5 5 5 5 6 6 6 5 8 13 13 5 4 6 6 7 7 6 6 6 5 5 6 6 6 7 7 7 8 9 9 9 9 9 9 10 10 10 10 10 10 9 10 10 10 10 10 11 11 11 11 11 11 11 11 11 10 11 10 8 8 8 8 7 5 1
5 5 5 5 6 5 6 7 7 6 6 7 6 6 7 7 5 6 6 5 6 6 5 5 6 6 8 14 12 12 5 3 4 7 7 6 6 6 5 5 5 4 6 7 7 8 8 8 8 8 9 10 10 10 10 10 10 10 10 10 10 10 10 10 10 11 11 11 11 11 12 12 12 11 11 11 9 9 8 7 6 6 6 6 5
5 5 5 6 5 6 6 6 4 5 6 6 6 5 6 6 6 7 6 6 5 5 5 6 6 4 5 9 9 9 4 5 5 6 6 7 6 6 6 6 5 5 5 6 6 6 7 8 8 8 8 9 10 10 11 11 11 11 11 11 11 11 11 11 11 11 11 11 11 12 12 12 11 9 9 9 9 8 7 7 7 6 6 5 5
5 5 6 5 5 4 6 5 6 6 6 6 5 7 6 6 6 5 6 5 5 5 5 6 5 5 5 6 5 5 5 5 6 6 6 7 7 7 7 6 5 5 6 6 6 6 6 7 8 8 8 8 9 10 10 10 10 10 11 11 11 11 10 11 11 12 11 11 11 10 11 11 10 9 9 9 8 8 7 7 6 6 5 5 5
5 6 5 5 5 5 6 5 6 6 6 6 5 6 7 5 6 6 6 6 6 6 5 5 5 5 6 5 5 5 5 6 6 7 7 7 7 7 6 6 6 6 6 7 6 6 6 7 7 8 9 8 8 9 9 10 10 9 9 11 11 11 11 11 11 11 11 11 9 9 9 9 10 9 9 9 8 7 7 6 6 5 5 5 4
6 5 6 5 6 7 6 6 7 6 6 6 7 7 7 6 6 5 6 6 6 5 5 5 5 4 6 6 5 6 6 5 6 6 7 7 7 7 6 6 6 6 6 7 7 6 7 6 7 8 9 9 9 9 9 10 10 10 9 9 10 10 10 10 10 10 10 10 10 9 8 9 9 8 10 9 8 7 7 7 5 5 4 4 4
4 5 6 6 6 7 7 7 5 6 5 6 6 6 6 6 6 6 6 7 6 6 6 5 5 5 5 5 6 6 6 5 6 6 7 7 7 7 6 6 6 6 7 7 6 7 7 7 6 7 8 9 9 10 10 9 10 10 9 9 10 11 10 10 10 9 10 10 9 8 8 8 8 7 9 9 8 8 7 7 6 6 6 5 5
6 6 6 6 5 6 6 4 6 6 7 7 7 7 7 6 6 6 6 6 5 6 5 5 5 6 6 6 6 5 5 5 6 7 6 7 7 7 6 5 6 6 7 8 7 6 6 6 7 7 8 8 9 9 9 10 10 10 10 9 9 12 16 16 10 9 9 9 8 8 8 8 7 7 8 8 8 8 7 7 7 7 7 7 6
5 6 6 6 6 6 6 6 7 6 7 6 6 7 7 6 6 6 5 5 5 5 5 5 5 5 5 6 6 6 6 7 6 6 6 6 6 6 6 6 6 6 6 8 8 7 7 7 7 7 7 8 8 9 9 10 11 10 11 10 14 24 23 23 14 10 12 9 7 7 7 7 8 7 8 7 8 7 7 7 7 7 7 7 7
6 4 5 5 6 6 6 6 6 6 7 7 6 7 6 6 6 6 6 5 5 5 5 5 6 6 5 6 7 6 5 6 6 6 7 6 6 6 6 6 6 6 6 7 8 7 7 7 7 7 7 7 8 8 8 9 10 10 10 12 21 23 21 20 17 15 12 8 8 6 7 6 7 7 7 7 7 7 7 7 7 7 6 7 7
5 4 5 5 5 5 6 6 6 6 6 6 6 6 6 6 6 6 5 5 6 6 5 5 5 5 6 6 6 5 6 6 7 7 7 7 7 6 6 6 6 6 7 7 7 7 7 7 7 7 7 7 8 8 8 8 9 10 15 22 21 20 21 18 13 13 17 12 7 7 7 7 6 7 7 7 7 7 8 7 7 6 6 5 5
Wind_Direction
120 126 118 102 92 84 75 67 59 56 55 49 52 43 36 33 31 18 5 15 9 5 8 360 356 353 348 349 349 347 349 346 349 345 343 338 337 330 327 329 323 318 314 310 304 299 298 294 299 300 299 298 295 296 294 290 290 284 278 274 271 258 248 258 266 278 277 213 269 281 281 295 290 240 276 277 278 271 263 261 258 254 252 253 254
123 130 116 105 89 84 77 69 63 51 52 43 40 37 26 27 23 16 26 2 11 1 0 353 351 346 349 343 345 344 341 342 337 342 336 334 331 332 328 324 317 311 311 308 311 309 303 302 298 296 290 285 291 294 294 295 293 291 284 276 271 275 247 262 269 272 284 273 276 280 285 265 276 266 260 283 279 272 271 271 256 241 249 250 254
148 131 98 82 73 76 71 57 56 50 51 43 37 33 26 25 28 28 24 7 6 4 351 352 346 345 346 343 342 341 340 336 337 333 329 325 321 319 319 318 316 317 317 313 312 309 304 299 298 301 299 292 289 288 290 288 284 282 284 278 276 274 268 251 269 278 281 281 262 280 279 279 270 284 265 268 273 272 280 276 269 264 247 249 251
124 86 84 77 79 74 66 57 60 56 52 46 39 31 32 31 28 31 31 8 7 355 355 353 349 347 345 343 342 339 337 337 335 333 325 324 318 315 315 313 309 308 305 307 312 314 309 308 304 306 301 294 293 293 287 279 278 280 279 281 275 277 272 262 257 268 281 287 277 259 280 282 281 275 274 264 275 274 266 275 268 265 262 251 245
90 86 98 91 75 78 65 61 65 53 50 43 36 36 36 31 26 24 21 10 6 359 1 360 353 353 353 346 344 345 343 340 337 332 328 321 316 314 315 313 311 307 304 302 302 302 301 300 305 310 308 302 300 296 293 288 285 282 281 280 278 277 275 268 266 263 275 278 285 275 268 269 266 279 282 284 280 271 270 263 266 266 266 251 251
108 106 110 100 88 78 69 61 58 51 48 39 39 36 34 29 23 22 19 4 4 6 1 1 356 353 349 346 344 343 342 338 334 329 324 324 321 318 315 313 310 308 306 304 303 304 301 301 301 305 305 303 302 302 299 294 292 285 283 281 279 276 276 274 268 269 269 274 279 289 272 271 277 259 273 272 282 284 277 269 267 255 258 266 248
133 119 110 110 101 97 82 68 67 55 51 44 44 38 32 26 23 21 13 7 5 1 359 357 355 351 344 347 345 341 337 334 330 324 323 323 317 313 312 310 308 308 305 306 307 305 303 302 301 301 298 296 296 298 301 296 290 284 280 282 277 275 274 273 272 272 273 279 281 276 282 268 259 277 262 249 263 265 279 293 282 252 246 248 267
137 126 125 115 116 122 100 100 75 64 58 54 51 40 30 27 24 15 14 10 10 360 358 353 347 347 343 344 336 335 331 329 324 321 317 315 312 310 310 308 306 304 301 299 298 296 297 297 295 293 291 287 287 288 287 287 288 287 286 284 285 284 282 282 281 278 277 278 278 287 279 283 276 259 277 281 280 273 243 251 275 282 265 240 239
134 136 129 129 134 130 118 94 84 78 65 57 49 31 28 25 20 16 17 12 5 357 356 348 338 342 338 333 330 329 328 322 324 319 317 315 314 310 309 307 305 303 302 302 301 298 294 291 290 291 294 297 296 295 292 291 292 292 289 290 291 288 285 281 280 280 278 278 281 279 283 280 271 275 272 254 242 257 270 224 260 265 278 278 262
142 143 138 136 131 120 110 93 76 70 55 47 42 27 30 22 17 17 17 9 356 356 349 340 341 334 330 323 325 323 316 316 308 311 313 313 313 312 309 306 307 307 307 308 307 307 306 306 303 303 302 300 298 295 292 289 285 283 285 285 282 278 275 276 272 266 268 269 267 274 276 275 274 262 264 256 249 261 270 267 266 275 278 274 278
143 143 139 136 119 105 93 77 69 62 52 47 33 26 24 14 17 17 13 4 356 355 340 337 341 326 320 319 318 316 309 303 308 313 313 313 311 308 306 306 305 306 305 305 306 307 307 307 307 308 307 304 303 302 301 299 298 295 291 287 284 284 290 290 286 288 290 286 289 285 277 277 273 268 261 268 260 255 260 261 260 269 271 280 281
139 133 128 118 106 96 93 84 70 56 46 30 24 17 14 8 11 8 358 359 353 345 341 336 326 320 314 312 309 310 304 306 312 313 313 312 312 309 307 305 304 303 303 303 303 304 305 305 303 301 299 299 299 301 300 297 294 291 288 287 286 284 281 281 286 287 282 281 276 270 277 276 285 287 279 267 271 268 255 255 258 257 264 262 260
128 122 119 112 107 104 97 84 73 53 42 26 17 8 13 3 6 358 356 343 335 342 332 327 318 317 313 312 312 309 300 309 312 313 313 314 313 312 304 303 302 304 305 304 302 302 302 299 298 295 295 297 296 291 288 287 287 288 288 289 289 288 287 285 283 283 288 284 281 279 270 278 280 280 284 283 275 274 272 263 257 258 258 260 259
126 130 124 121 121 114 99 88 73 62 47 26 16 8 10 3 345 334 335 339 342 328 320 317 314 312 313 311 308 308 299 309 313 313 314 313 312 312 306 309 308 304 301 299 298 297 297 297 298 297 297 297 295 293 291 289 288 290 292 290 285 284 286 284 282 281 279 279 283 281 283 286 284 293 296 305 295 286 286 280 280 271 265 261 266
135 142 138 133 125 115 108 104 94 82 38 31 15 5 360 343 347 346 350 336 331 323 321 316 309 308 308 308 305 304 301 310 313 313 313 312 312 314 313 310 302 298 296 297 297 297 295 295 294 293 295 294 292 290 290 290 290 285 283 282 282 285 285 286 284 280 272 266 267 268 272 272 273 277 280 282 284 287 284 282 282 281 280 277 270
147 145 143 143 140 135 126 117 98 71 33 16 17 353 349 342 335 333 331 315 294 297 294 295 302 305 304 304 303 301 302 310 312 312 311 312 314 314 308 300 301 299 298 297 296 295 294 293 293 292 291 291 290 291 291 289 286 282 276 272 270 266 261 260 275 277 277 276 272 272 269 270 274 274 274 272 266 265 264 264 262 260 263 262 260
166 162 152 152 144 134 116 103 69 32 24 10 355 341 335 328 326 322 319 306 307 303 296 298 298 300 302 300 300 297 297 308 309 309 311 312 314 297 298 295 297 295 291 295 294 292 291 289 287 289 288 286 286 289 290 291 285 276 272 272 268 264 261 250 270 280 282 282 281 281 282 284 284 283 283 284 285 289 295 293 279 271 257 260 260
173 165 162 155 140 121 109 100 61 15 11 346 322 310 307 301 298 304 305 308 305 296 300 299 291 292 294 294 292 295 295 302 306 308 309 309 309 306 297 275 259 281 293 288 292 288 281 285 285 287 285 280 283 286 288 290 285 281 275 272 270 264 262 260 262 261 265 271 273 274 276 280 282 282 283 285 286 289 291 282 283 290 285 275 267
178 176 167 150 127 123 118 113 103 345 317 299 300 302 302 294 290 293 280 283 286 297 298 296 294 287 281 284 292 294 291 296 301 303 306 306 307 297 293 288 274 280 290 288 276 271 263 270 277 284 288 287 289 292 293 293 287 280 276 271 271 265 264 262 262 265 260 257 258 260 263 264 267 266 265 270 274 275 271 275 285 280 278 277 276
176 149 138 132 127 123 125 129 180 250 274 290 293 281 285 294 287 293 292 285 292 296 292 289 291 289 287 285 284 283 289 288 292 300 304 306 306 303 293 287 280 281 270 273 280 266 254 247 265 282 289 290 291 292 291 288 284 277 271 270 268 273 268 267 263 264 265 258 260 252 255 255 259 260 259 260 261 258 257 258 262 266 270 273 273
148 148 136 130 127 132 134 156 234 267 250 264 276 284 281 285 295 296 295 297 293 294 291 289 287 287 285 282 282 281 276 286 288 296 301 304 306 307 291 283 282 281 278 273 270 275 253 255 265 280 290 292 291 290 288 285 284 279 273 265 262 265 271 272 273 275 275 270 264 265 265 267 265 262 264 263 261 256 252 258 254 250 258 266 268
145 142 142 139 140 139 174 247 236 242 268 267 279 275 265 268 279 287 288 293 295 289 291 290 289 289 286 282 280 282 281 282 287 293 298 302 306 308 304 287 292 291 291 285 283 276 274 278 275 288 292 290 290 288 287 287 284 283 281 282 285 289 292 286 282 281 277 279 278 276 275 271 267 260 261 263 262 260 256 259 260 260 252 250 257
149 147 142 146 152 179 208 235 264 248 258 254 257 276 281 286 283 283 288 289 284 288 287 289 292 293 294 286 280 281 283 280 287 290 295 304 308 308 306 306 306 304 295 286 281 281 276 275 275 288 291 288 284 284 286 287 292 294 293 297 299 299 301 301 294 284 276 272 271 270 267 265 267 267 264 269 269 268 270 268 266 263 258 254 250
145 144 150 161 164 198 236 254 249 249 252 263 266 273 283 278 281 274 277 278 284 287 285 286 292 294 302 303 294 285 282 281 281 294 304 310 313 313 311 309 307 302 296 291 293 286 283 277 279 285 288 293 297 301 302 307 305 301 302 300 300 300 295 288 281 279 279 280 277 275 272 267 264 270 268 264 267 263 263 264 262 261 266 275 272
147 160 171 178 188 225 254 247 251 255 253 234 256 265 275 266 280 267 266 277 274 281 282 281 283 291 295 296 300 297 291 288 291 296 310 315 315 313 311 310 310 310 306 293 288 288 296 299 300 301 302 304 305 305 305 302 298 299 298 298 300 302 300 294 292 289 283 280 276 276 273 272 263 266 265 263 263 262 264 263 264 266 265 261 264
162 181 188 186 207 211 240 264 256 248 252 235 231 242 248 264 267 280 273 268 263 265 277 278 276 279 281 289 293 298 299 298 298 299 303 307 305 304 305 310 311 310 309 305 303 303 303 304 305 305 303 299 295 289 280 288 297 302 303 305 306 298 292 289 282 279 273 275 276 277 276 275 269 265 265 266 266 262 259 264 268 262 256 259 259
172 181 194 201 207 199 215 255 268 256 239 242 239 244 240 241 249 266 261 266 265 260 265 269 274 268 266 285 291 299 298 298 307 309 308 301 295 294 297 297 308 313 308 298 304 305 306 311 313 312 313 312 311 310 307 306 306 302 297 293 288 283 280 272 273 273 276 274 274 268 270 268 269 269 267 265 263 263 259 267 266 264 260 255 257
180 193 201 194 211 204 214 239 240 255 250 233 251 259 245 225 235 248 251 250 256 263 255 262 262 264 277 287 283 277 294 309 307 305 298 297 304 307 307 318 325 320 316 317 314 314 315 315 311 310 319 323 315 300 291 294 295 299 294 292 290 285 280 278 279 273 271 269 266 272 271 273 270 269 269 263 262 262 258 256 255 259 253 254 257
175 187 194 184 226 221 218 223 225 234 255 255 243 233 245 249 250 256 242 230 233 247 257 252 259 269 261 254 271 297 308 303 300 308 313 317 319 326 332 326 323 327 324 322 320 321 319 315 317 327 328 321 323 319 317 311 307 303 301 302 302 300 295 290 281 278 276 273 272 273 273 269 268 263 262 262 259 259 256 251 252 251 254 247 251
173 201 194 204 222 226 230 229 227 230 235 249 264 275 248 254 249 241 243 256 257 252 250 243 248 268 285 289 299 300 304 303 310 316 317 320 329 329 328 332 336 334 332 337 339 333 336 330 327 328 327 332 327 327 325 326 322 320 317 317 312 302 294 293 288 283 280 277 273 273 272 272 271 270 264 264 268 265 260 260 262 254 255 246 246
181 195 192 212 210 211 217 228 225 226 232 237 242 264 299 292 283 280 276 273 272 276 278 281 286 289 291 304 310 307 306 310 314 316 320 330 333 332 334 342 344 343 348 357 359 349 340 338 333 328 328 326 324 323 324 323 322 319 314 309 302 304 306 300 299 292 285 279 279 271 269 269 271 273 273 271 272 273 274 264 259 256 251 250 246
183 187 188 195 206 209 210 220 231 233 241 237 240 252 266 301 307 301 287 280 289 292 289 288 285 287 303 311 312 307 311 313 317 319 329 336 335 334 339 348 347 349 356 6 352 345 339 330 325 325 326 325 323 323 320 318 314 312 310 312 311 311 311 310 309 304 295 288 283 280 275 272 269 270 270 271 273 273 272 273 265 262 259 248 245
182 190 186 175 202 206 211 217 229 225 241 243 248 234 252 261 291 310 315 308 300 289 295 293 286 300 314 316 316 316 316 319 319 325 336 340 338 340 345 349 347 351 356 359 350 335 332 325 321 321 321 317 316 315 313 312 308 307 307 306 308 310 309 305 307 300 292 288 285 280 279 274 272 272 269 272 273 272 273 273 282 285 274 257 244
191 189 195 188 187 209 208 218 221 232 226 231 233 238 244 243 253 271 302 322 331 333 198 298 300 305 309 313 317 318 320 323 323 333 343 344 344 348 351 342 341 358 6 347 335 327 321 318 319 318 317 314 313 313 310 310 309 305 305 302 301 300 301 304 305 302 301 302 299 288 281 277 272 273 273 275 273 275 276 279 285 290 289 268 253
177 185 189 184 199 208 210 212 216 221 225 231 234 237 243 244 244 252 266 281 284 292 307 305 300 291 300 305 310 317 323 325 327 341 348 348 349 355 351 348 353 347 354 343 320 318 320 322 317 317 316 315 312 311 309 309 309 309 308 308 306 306 307 310 308 306 307 317 314 308 300 293 288 284 284 282 280 279 281 282 283 285 289 282 264
183 185 189 200 205 209 212 212 215 218 225 236 230 235 233 235 240 244 254 256 261 279 280 284 294 306 307 305 314 321 325 329 332 347 350 349 355 5 358 349 340 337 334 334 337 329 322 314 314 310 310 304 305 304 304 304 304 306 304 305 309 310 311 311 309 312 319 319 317 321 321 315 312 308 304 298 291 287 285 285 286 288 287 284 271
187 199 195 203 202 209 212 210 215 219 232 232 233 235 234 236 244 242 246 249 261 254 263 290 312 312 313 283 314 327 327 328 334 346 349 344 354 11 360 343 333 326 328 328 327 325 321 316 311 306 307 307 307 304 303 302 302 303 307 307 303 306 305 308 316 318 316 317 318 318 318 315 312 310 311 308 305 299 295 292 291 288 286 283 276
194 197 204 194 196 202 207 216 222 228 232 235 230 229 240 247 245 243 245 250 248 258 275 285 288 285 299 302 324 313 307 315 331 340 345 347 351 356 351 327 312 304 307 308 311 310 308 307 308 309 309 308 307 309 307 304 304 306 309 309 310 304 314 316 316 314 315 313 313 314 313 312 312 312 314 312 310 306 301 298 294 291 287 283 285
202 209 208 205 206 200 206 216 222 219 229 226 228 228 239 241 244 243 244 243 251 264 263 269 273 276 275 290 310 307 307 318 344 330 327 316 303 297 304 306 301 304 306 310 313 315 311 311 313 312 309 310 308 308 307 306 306 306 307 310 313 313 316 316 316 315 316 313 311 309 310 310 310 310 311 311 312 312 308 305 301 293 284 279 263
192 207 214 216 219 221 199 205 210 216 220 219 229 223 237 238 240 243 242 241 252 250 251 262 269 264 273 291 288 289 294 321 321 314 310 309 311 317 319 319 323 323 325 322 320 318 316 313 313 314 313 312 310 309 308 308 306 305 306 309 315 319 319 317 315 317 317 318 316 315 315 314 314 312 311 311 312 314 314 313 309 304 296 291 302
206 205 203 219 215 214 225 221 223 224 221 224 226 226 228 234 236 234 235 240 247 253 256 257 258 266 268 276 288 298 318 323 312 305 295 300 306 312 317 314 320 323 321 316 312 311 310 311 312 312 312 309 310 310 311 311 311 312 313 312 313 317 318 317 317 317 318 316 316 315 315 315 316 316 315 315 315 317 310 310 313 316 317 312 321
206 207 216 218 221 216 214 226 226 222 219 225 227 224 229 234 236 233 239 244 244 247 259 261 262 260 271 284 293 305 328 329 303 292 293 292 294 298 298 300 300 299 304 306 308 310 311 311 310 311 310 313 314 314 314 315 318 320 318 317 317 319 323 326 325 323 322 320 320 319 318 317 317 317 316 316 318 318 320 321 324 330 333 334 337
204 211 216 214 213 219 223 232 221 223 231 230 236 233 234 230 231 234 241 243 243 248 248 262 270 267 271 285 298 309 322 301 278 283 284 289 290 293 292 292 296 293 291 289 290 290 296 300 303 304 305 307 309 311 313 313 316 319 321 319 318 318 323 327 328 326 324 322 321 319 319 319 319 318 319 320 321 321 321 328 332 338 337 347 353
211 216 215 218 223 233 234 229 230 229 230 232 232 233 231 231 235 235 235 243 247 245 247 255 261 275 279 286 297 303 282 275 274 274 275 282 284 286 289 292 299 301 299 293 291 286 290 295 297 297 294 295 298 302 303 306 311 314 320 322 320 317 322 330 331 329 326 323 319 319 322 319 319 320 320 323 325 325 328 334 339 341 349 355 5
207 210 215 221 225 223 236 232 232 236 239 238 240 240 237 231 237 236 233 239 243 244 247 250 256 261 274 279 280 276 275 271 274 276 277 275 280 281 286 293 299 303 301 296 291 293 291 292 293 298 303 302 300 302 305 307 310 309 315 323 323 322 328 332 332 327 321 320 318 317 322 324 325 324 324 327 329 329 330 336 334 345 357 2 13
203 210 217 220 228 230 233 234 235 234 234 235 238 244 243 240 237 234 237 236 238 244 251 253 253 254 256 268 269 267 270 274 272 270 273 277 275 280 280 287 292 294 292 291 294 294 291 290 297 301 303 304 308 306 309 310 312 311 312 319 322 317 321 327 328 327 325 323 323 319 318 323 326 325 330 332 329 334 333 337 341 348 352 359 9
206 209 221 220 225 232 235 235 231 235 237 239 237 239 243 237 232 235 234 234 239 241 245 252 252 255 255 256 259 264 264 266 269 276 273 273 276 277 284 286 292 293 294 293 291 290 292 292 294 295 299 301 303 305 307 311 314 313 312 319 320 326 332 334 332 331 327 325 324 320 323 324 328 329 335 338 339 341 340 343 343 349 351 3 3
212 215 219 224 226 235 242 236 239 241 236 236 236 239 242 240 239 235 235 239 244 247 251 254 251 255 259 263 256 260 263 264 268 266 272 273 275 276 282 287 291 292 297 296 295 292 290 293 294 296 298 302 305 307 307 310 312 314 311 319 322 333 338 339 334 334 331 329 326 325 326 326 329 335 342 345 349 346 352 352 352 360 7 12 22
211 213 222 223 226 232 237 237 234 237 238 238 243 244 243 244 243 241 242 240 241 243 240 248 257 258 254 261 264 264 263 269 272 275 273 273 275 277 278 282 288 291 292 294 295 298 296 296 295 295 294 298 300 301 305 307 310 312 314 316 329 337 340 343 340 339 339 334 331 332 332 334 337 341 348 351 352 356 3 3 7 9 15 23 27
214 216 219 226 232 240 238 237 239 243 242 238 235 243 245 244 247 246 243 240 244 247 243 241 250 252 255 267 269 270 274 274 274 276 278 277 275 276 280 284 286 286 286 289 292 294 297 296 298 295 297 296 297 298 300 302 305 307 310 318 328 334 337 341 339 344 351 341 338 332 334 339 343 346 350 352 350 2 11 11 11 17 19 26 28
220 219 222 226 234 241 242 240 244 241 239 239 235 240 242 240 243 245 241 241 244 249 247 244 246 253 254 251 257 268 273 271 270 269 272 274 276 280 282 285 287 290 289 285 287 291 294 297 297 298 299 296 299 297 299 297 300 299 305 317 325 331 336 341 343 347 351 351 339 339 344 345 353 355 354 355 358 1 10 17 20 22 23 24 25